Location: Unspecified
(0.0000°N, 0.0000°E)
Time: 09:52:13
(UTC+01:00)

Amateur Radio Satellites - All Passes

Search period start: 03 March 2015 09:22
Search period end: 04 March 2015 09:22
Location: Unspecified, 0.0000°N, 0.0000°E

Satellite Date Start Highest point End Downlink Frequencies (MHz)
Time Altitude Azimuth
Oscar 11 03 Mar 09:32:07 09:34:54 17° 100° (E) 09:37:52 145.826/435.025
AAUSAT CUBESAT 2 03 Mar 09:36:20 09:40:26 53° 101° (ESE) 09:44:34 437.432
COMPASS 1 03 Mar 09:39:03 09:43:15 72° 101° (E) 09:47:29 437.405
CUBEBUG 2 03 Mar 09:40:42 09:42:58 15° 101° (E) 09:45:30 437.445
GONETS M04 03 Mar 09:45:57 09:53:54 40° 86° (E) 10:02:05
DX 1 03 Mar 09:57:22 09:59:42 15° 101° (E) 10:02:16 434.975-435.025
SEEDS 03 Mar 10:07:14 10:11:05 33° 281° (W) 10:14:54 437.485
CANX-2 03 Mar 10:11:33 10:14:51 21° 280° (W) 10:18:03 2200.000
O/OREOS (USA 219) 03 Mar 10:12:46 10:15:02 13° 287° (WNW) 10:17:01 437.305
FUNcube-1 03 Mar 10:16:26 10:20:02 29° 101° (E) 10:23:49 145.935
ZACube-1 03 Mar 10:17:43 10:21:25 31° 101° (E) 10:25:16 437.345
BRITE-PL 03 Mar 10:18:39 10:19:43 11° 280° (W) 10:20:28 437.365/2234.400
GOMX 1 03 Mar 10:19:56 10:22:43 17° 280° (W) 10:25:19 467.674
HUMSAT D 03 Mar 10:20:07 10:22:08 14° 100° (E) 10:24:25 437.325/437.525
UKube-1 03 Mar 10:24:59 10:28:54 35° 101° (ESE) 10:32:53 .
CUTE 1.7 + AOD 2 03 Mar 10:31:19 10:33:27 13° 279° (W) 10:35:20 437.475
HO-68 03 Mar 10:36:37 10:42:23 25° 283° (WNW) 10:47:53 435.675
UWE-3 03 Mar 10:37:05 10:41:17 82° 101° (E) 10:45:37 435.000/436.395/437.385
DELFI C3 03 Mar 10:42:13 10:46:13 55° 281° (W) 10:50:14 145.870
NANOSAT C BR1 03 Mar 10:44:38 10:46:04 12° 80° (E) 10:47:49 145.865
JUGNU 03 Mar 10:47:59 10:53:58 74° 202° (SSW) 10:59:57 437.505
SRMSAT 03 Mar 10:49:51 10:55:33 46° 20° (NNE) 11:01:14 437.500
RS-15 03 Mar 10:54:40 11:06:39 90° 212° (SSW) 11:18:59 29.354- 29.394
CINEMA 3 03 Mar 10:58:22 11:01:18 18° 279° (W) 11:04:07 145.822/145.860
UNISAT 6 03 Mar 10:59:37 11:04:00 47° 79° (E) 11:08:18 437.425
Oscar 11 03 Mar 11:07:46 11:10:58 19° 280° (W) 11:14:00 145.826/435.025
QB50P1 03 Mar 11:15:11 11:19:06 35° 79° (E) 11:23:01 145.935-145.965
CUBEBUG 2 03 Mar 11:16:19 11:19:34 21° 280° (W) 11:22:45 437.445
QB50P2 03 Mar 11:19:02 11:23:04 40° 79° (E) 11:27:07 145.880/145.840
BUGSAT 1 03 Mar 11:23:42 11:27:26 31° 79° (E) 11:31:14 437.445
TIGRISAT 03 Mar 11:24:18 11:28:55 79° 258° (WSW) 11:33:22 435.000
DX 1 03 Mar 11:32:23 11:35:50 22° 281° (W) 11:39:10 434.975-435.025
DUCHIFAT 1 03 Mar 11:33:33 11:37:49 65° 79° (ENE) 11:42:03 145.980
AISAT 03 Mar 11:36:30 11:40:51 64° 282° (WNW) 11:45:12 437.250
ANTELSAT 03 Mar 11:38:17 11:42:43 48° 258° (WSW) 11:47:00 437.575/2403.000
CUBEBUG 1 03 Mar 11:38:57 11:43:03 42° 101° (E) 11:47:11 437.445
GONETS M04 03 Mar 11:43:34 11:50:39 26° 264° (W) 11:57:21
VELOX 1 03 Mar 11:45:57 11:50:11 48° 282° (WNW) 11:54:26 145.980
50 SAT 03 Mar 11:46:53 11:50:39 41° 281° (W) 11:54:26 437.505
DANDE 03 Mar 11:50:41 11:51:52 12° 89° (E) 11:53:20 436.750
POLYITAN 1 03 Mar 11:54:14 11:58:30 58° 259° (WSW) 12:02:45 437.675
POPSAT HIP 1 03 Mar 11:54:32 11:58:48 59° 258° (WSW) 12:03:03 437.405
HUMSAT D 03 Mar 11:54:33 11:57:48 22° 280° (W) 12:00:59 437.325/437.525
FUNcube-1 03 Mar 11:55:28 11:56:21 10° 279° (W) 11:56:53 145.935
ESTCUBE 1 03 Mar 12:02:46 12:07:17 75° 281° (W) 12:11:48 437.505/2401.250
SPROUT 03 Mar 12:10:35 12:13:33 19° 100° (E) 12:16:40 437.525
TISAT 1 03 Mar 12:13:14 12:16:00 18° 101° (E) 12:18:56 437.305
CUSAT 1 03 Mar 12:15:56 12:18:59 61° 86° (E) 12:22:56 437.405
NANOSAT C BR1 03 Mar 12:18:09 12:21:51 27° 259° (W) 12:25:26 145.865
SO-50 03 Mar 12:26:32 12:30:59 36° 67° (ENE) 12:35:23 436.795
JUGNU 03 Mar 12:38:07 12:43:11 28° 198° (SSW) 12:48:12 437.505
SRMSAT 03 Mar 12:38:53 12:44:47 65° 201° (SSW) 12:50:41 437.500
RS-15 03 Mar 13:14:06 13:19:56 13° 242° (WSW) 13:24:14 29.354- 29.394
VERMONT LUNAR 03 Mar 13:15:54 13:16:08 10° 140° (SE) 13:16:34 437.305
SWISSCUBE 03 Mar 13:38:22 13:42:28 30° 101° (E) 13:46:40 437.505
SPROUT 03 Mar 13:46:42 13:49:32 17° 280° (W) 13:52:10 437.525
BEESAT 03 Mar 13:46:42 13:51:00 34° 101° (ESE) 13:55:22 436.000
TISAT 1 03 Mar 13:48:52 13:51:42 17° 280° (W) 13:54:21 437.305
Oscar 19 03 Mar 13:52:22 13:57:23 52° 78° (ENE) 14:02:23 437.125/150
ITAMSAT 1 03 Mar 13:54:51 13:56:38 12° 79° (E) 13:58:50 435.822/435.867
SO-50 03 Mar 14:09:24 14:11:27 12° 246° (WSW) 14:13:08 436.795
ITUPSAT 1 03 Mar 14:13:54 14:18:42 79° 102° (ESE) 14:23:32 437.325
SRMSAT 03 Mar 14:29:23 14:34:12 25° 197° (SSW) 14:38:57 437.500
JUGNU 03 Mar 14:30:00 14:32:52 13° 190° (S) 14:35:37 437.505
VERMONT LUNAR 03 Mar 14:50:42 14:54:02 46° 317° (NW) 14:57:22 437.305
PHONESAT 2.4 03 Mar 14:58:05 15:01:38 57° 138° (SE) 15:05:12 2401.200-2431.200
Gurwin Techsat 1B 03 Mar 15:06:18 15:11:36 69° 78° (ENE) 15:16:52 435.225
SWISSCUBE 03 Mar 15:17:37 15:20:14 14° 280° (W) 15:22:34 437.505
KKS-1 03 Mar 15:26:09 15:30:35 86° 279° (W) 15:35:01 437.445
BEESAT 03 Mar 15:26:50 15:28:46 12° 280° (W) 15:30:22 436.000
ITAMSAT 1 03 Mar 15:31:11 15:36:04 40° 258° (WSW) 15:40:54 435.822/435.867
STARS 03 Mar 15:31:18 15:35:37 63° 102° (ESE) 15:39:57 437.465
BEESAT 2 03 Mar 15:52:46 15:55:36 19° 113° (ESE) 15:58:34 435.950
M-CUBED/EXP-1 PRIME 03 Mar 16:02:52 16:04:42 12° 105° (ESE) 16:06:53 437.505
AUBIESAT-1 03 Mar 16:04:56 16:06:10 11° 104° (ESE) 16:07:48 437.475
HORYU 2 03 Mar 16:06:07 16:10:35 77° 77° (ENE) 16:15:00 437.375
YUBILEINY 03 Mar 16:10:35 16:18:47 48° 94° (E) 16:27:07 435.215
AO-7 03 Mar 16:21:38 16:29:41 53° 75° (ENE) 16:37:46 29.400- 29.500
SRMSAT 03 Mar 16:21:39 16:24:06 12° 189° (S) 16:26:28 437.500
MOZHAYETS 4 03 Mar 16:42:51 16:46:14 21° 100° (E) 16:49:48
BEESAT 3 03 Mar 17:03:49 17:07:19 28° 293° (WNW) 17:10:47 437.485
JAS-2 03 Mar 17:29:50 17:34:55 58° 258° (WSW) 17:40:09 435.910
AIST 2 03 Mar 17:30:34 17:34:38 57° 292° (WNW) 17:38:45 435.215
BEESAT 2 03 Mar 17:31:10 17:33:39 15° 294° (WNW) 17:35:57 435.950
M-CUBED/EXP-1 PRIME 03 Mar 17:35:04 17:39:25 37° 284° (WNW) 17:43:52 437.505
AUBIESAT-1 03 Mar 17:36:26 17:40:50 41° 285° (WNW) 17:45:22 437.475
YUBILEINY 03 Mar 18:09:17 18:15:33 21° 276° (W) 18:21:15 435.215
JUGNU 03 Mar 18:10:32 18:13:04 13° 170° (S) 18:15:42 437.505
AO-7 03 Mar 18:16:25 18:22:23 20° 256° (WSW) 18:27:47 29.400- 29.500
MOZHAYETS 4 03 Mar 18:20:02 18:23:21 19° 280° (W) 18:26:30
CUBESAT XI-V 03 Mar 18:43:05 18:47:12 32° 101° (E) 18:51:24 437.345
ISS 03 Mar 18:45:28 18:48:41 62° 54° (NE) 18:51:55 145.825
AIST 1 03 Mar 19:01:53 19:05:32 27° 85° (E) 19:09:17
Cubesat XI-IV 03 Mar 19:02:55 19:08:17 85° 255° (WSW) 19:13:39 437.490
STRAND 1 03 Mar 19:05:54 19:10:30 35° 102° (ESE) 19:15:11 437.568
PRISM 03 Mar 19:08:48 19:13:00 83° 102° (ESE) 19:17:13 437.425
CUTE-I 03 Mar 19:11:42 19:17:02 68° 258° (WSW) 19:22:21 437.470
PCSat 03 Mar 19:26:26 19:31:08 31° 111° (ESE) 19:35:56 145.827
JUGNU 03 Mar 19:57:55 20:02:45 27° 163° (SSE) 20:07:38 437.505
SRMSAT 03 Mar 20:01:34 20:04:38 14° 169° (S) 20:07:47 437.500
CUBESAT XI-V 03 Mar 20:22:43 20:24:35 12° 280° (W) 20:26:05 437.345
SEEDS 03 Mar 20:40:25 20:41:34 11° 81° (E) 20:43:02 437.485
HO-68 03 Mar 20:40:28 20:46:23 30° 77° (ENE) 20:52:30 435.675
AIST 1 03 Mar 20:42:02 20:43:08 11° 264° (W) 20:43:52
O/OREOS (USA 219) 03 Mar 20:42:28 20:46:47 45° 75° (ENE) 20:51:07 437.305
CANX-2 03 Mar 20:43:15 20:46:11 19° 80° (E) 20:49:14 2200.000
STRAND 1 03 Mar 20:47:00 20:49:38 13° 281° (W) 20:51:53 437.568
CUTE 1.7 + AOD 2 03 Mar 21:00:59 21:04:41 30° 80° (E) 21:08:25 437.475
BRITE-PL 03 Mar 21:02:22 21:08:01 71° 79° (E) 21:13:41 437.365/2234.400
GOMX 1 03 Mar 21:03:29 21:08:42 46° 79° (E) 21:13:55 467.674
PCSat 03 Mar 21:10:55 21:14:28 17° 292° (WNW) 21:17:44 145.827
DOVE 4 03 Mar 21:34:19 21:39:38 70° 79° (E) 21:44:50 437.250
CINEMA 3 03 Mar 21:36:57 21:41:26 34° 80° (E) 21:45:51 145.822/145.860
Oscar 11 03 Mar 21:40:39 21:43:59 23° 80° (E) 21:47:26 145.826/435.025
AAUSAT CUBESAT 2 03 Mar 21:41:13 21:45:21 63° 78° (ENE) 21:49:25 437.432
COMPASS 1 03 Mar 21:44:25 21:48:37 87° 82° (E) 21:52:45 437.405
JUGNU 03 Mar 21:46:07 21:51:57 71° 159° (SSE) 21:57:48 437.505
SRMSAT 03 Mar 21:49:15 21:54:25 31° 162° (SSE) 21:59:39 437.500
CUBEBUG 2 03 Mar 21:52:32 21:56:19 25° 80° (E) 22:00:07 437.445
DX 1 03 Mar 22:06:32 22:09:44 21° 79° (E) 22:13:04 434.975-435.025
SEEDS 03 Mar 22:13:43 22:17:19 26° 259° (W) 22:20:47 437.485
ANTELSAT 03 Mar 22:18:11 22:19:27 11° 101° (E) 22:21:04 437.575/2403.000
GONETS M04 03 Mar 22:19:03 22:27:47 78° 94° (E) 22:36:27
CANX-2 03 Mar 22:19:12 22:22:00 17° 260° (W) 22:24:35 2200.000
VELOX 1 03 Mar 22:25:11 22:26:04 11° 80° (E) 22:27:20 145.980
HUMSAT D 03 Mar 22:25:29 22:28:14 17° 80° (E) 22:31:08 437.325/437.525
FUNcube-1 03 Mar 22:26:19 22:30:37 43° 79° (E) 22:34:48 145.935
ZACube-1 03 Mar 22:27:50 22:32:12 46° 79° (E) 22:36:27 437.345
HO-68 03 Mar 22:27:52 22:33:59 30° 257° (WSW) 22:39:54 435.675
UKube-1 03 Mar 22:34:00 22:38:11 48° 78° (ENE) 22:42:23 .
RS-15 03 Mar 22:38:12 22:49:25 78° 112° (ESE) 23:00:17 29.354- 29.394
DELFI C3 03 Mar 22:43:46 22:47:43 51° 259° (W) 22:51:37 145.870
GOMX 1 03 Mar 22:44:17 22:46:42 12° 260° (W) 22:48:40 467.674
UWE-3 03 Mar 22:48:48 22:53:24 67° 259° (WSW) 22:57:53 435.000/436.395/437.385
NANOSAT C BR1 03 Mar 22:50:33 22:52:42 14° 100° (E) 22:55:06 145.865
DANDE 03 Mar 22:56:37 22:58:52 12° 103° (ESE) 23:01:53 436.750
UNISAT 6 03 Mar 23:12:58 23:17:21 74° 102° (ESE) 23:21:52 437.425
CINEMA 3 03 Mar 23:15:57 23:18:29 13° 259° (W) 23:20:39 145.822/145.860
Oscar 11 03 Mar 23:17:37 23:20:04 14° 260° (W) 23:22:16 145.826/435.025
CUSAT 1 03 Mar 23:17:50 23:24:01 26° 101° (E) 23:29:39 437.405
QB50P1 03 Mar 23:21:52 23:25:51 43° 101° (ESE) 23:29:52 145.935-145.965
QB50P2 03 Mar 23:25:57 23:30:01 51° 101° (E) 23:34:09 145.880/145.840
BUGSAT 1 03 Mar 23:27:40 23:31:19 33° 101° (E) 23:35:00 437.445
CUBEBUG 2 03 Mar 23:29:55 23:32:52 16° 259° (W) 23:35:33 437.445
JUGNU 03 Mar 23:35:30 23:41:01 41° 340° (NNW) 23:46:33 437.505
TIGRISAT 03 Mar 23:37:43 23:41:58 50° 281° (W) 23:46:19 435.000
SRMSAT 03 Mar 23:37:46 23:43:44 82° 160° (SSE) 23:49:45 437.500
DUCHIFAT 1 03 Mar 23:40:04 23:44:15 81° 101° (E) 23:48:28 145.980
DX 1 03 Mar 23:42:57 23:45:52 17° 259° (W) 23:48:34 434.975-435.025
50 SAT 03 Mar 23:46:55 23:50:45 41° 259° (W) 23:54:31 437.505
AISAT 03 Mar 23:49:15 23:53:31 42° 259° (WSW) 23:57:44 437.250
CUBEBUG 1 03 Mar 23:49:17 23:53:40 62° 79° (ENE) 23:58:03 437.445
ANTELSAT 03 Mar 23:52:13 23:56:07 30° 280° (W) 00:00:04 437.575/2403.000
VELOX 1 03 Mar 23:58:32 00:02:34 32° 259° (W) 00:06:32 145.980
HUMSAT D 04 Mar 00:00:51 00:03:54 18° 259° (W) 00:06:47 437.325/437.525
POLYITAN 1 04 Mar 00:01:35 00:05:36 45° 281° (W) 00:09:38 437.675
POPSAT HIP 1 04 Mar 00:01:36 00:05:38 46° 281° (W) 00:09:40 437.405
ESTCUBE 1 04 Mar 00:17:30 00:21:50 46° 259° (W) 00:26:08 437.505/2401.250
SPROUT 04 Mar 00:18:26 00:21:58 25° 80° (E) 00:25:37 437.525
TISAT 1 04 Mar 00:19:04 00:22:22 22° 79° (E) 00:25:47 437.305
GONETS M04 04 Mar 00:22:59 00:24:46 10° 277° (W) 00:25:23
NANOSAT C BR1 04 Mar 00:25:12 00:28:28 21° 280° (W) 00:31:37 145.865
DANDE 04 Mar 00:34:25 00:42:55 78° 275° (W) 00:49:56 436.750
SO-50 04 Mar 00:39:24 00:43:45 65° 112° (ESE) 00:48:12 436.795
RS-15 04 Mar 00:56:06 01:02:03 15° 297° (WNW) 01:06:46 29.354- 29.394
CUSAT 1 04 Mar 00:59:43 01:06:56 36° 273° (W) 01:12:50 437.405
JUGNU 04 Mar 01:26:32 01:30:28 18° 346° (NNW) 01:34:19 437.505
SRMSAT 04 Mar 01:27:33 01:33:02 37° 341° (NNW) 01:38:31 437.500
TISAT 1 04 Mar 01:55:36 01:58:04 14° 260° (W) 02:00:16 437.305
SPROUT 04 Mar 01:55:48 01:57:58 13° 260° (W) 01:59:50 437.525
SWISSCUBE 04 Mar 02:00:09 02:04:50 59° 78° (ENE) 02:09:31 437.505
Gurwin Techsat 1B 04 Mar 02:08:15 02:10:12 12° 101° (E) 02:12:33 435.225
BEESAT 04 Mar 02:08:32 02:13:16 69° 78° (ENE) 02:18:00 436.000
Oscar 19 04 Mar 02:25:58 02:31:01 60° 282° (WNW) 02:36:06 437.125/150
ITAMSAT 1 04 Mar 02:27:15 02:31:49 33° 102° (ESE) 02:36:28 435.822/435.867
VERMONT LUNAR 04 Mar 02:27:55 02:31:17 62° 223° (SW) 02:34:40 437.305
ITUPSAT 1 04 Mar 02:36:40 02:41:18 51° 258° (WSW) 02:45:56 437.325
PHONESAT 2.4 04 Mar 02:39:23 02:42:49 48° 42° (NE) 02:46:17 2401.200-2431.200
SRMSAT 04 Mar 03:19:00 03:22:44 17° 347° (NNW) 03:26:23 437.500
JUGNU 04 Mar 03:19:27 03:20:25 10° 355° (N) 03:21:21 437.505
BEESAT 3 04 Mar 03:23:38 03:24:43 11° 65° (ENE) 03:26:05 437.485
KKS-1 04 Mar 03:39:05 03:43:31 56° 258° (WSW) 03:47:54 437.445
STARS 04 Mar 03:42:46 03:47:14 88° 261° (W) 03:51:40 437.465
Gurwin Techsat 1B 04 Mar 03:45:07 03:50:06 41° 282° (WNW) 03:55:02 435.225
BEESAT 2 04 Mar 03:48:34 03:51:39 22° 67° (ENE) 03:54:49 435.950
ITAMSAT 1 04 Mar 04:08:10 04:11:13 15° 281° (W) 04:13:57 435.822/435.867
HORYU 2 04 Mar 04:19:02 04:23:29 70° 282° (WNW) 04:27:57 437.375
PHONESAT 2.4 04 Mar 04:20:31 04:21:16 10° 220° (SW) 04:21:50 2401.200-2431.200
YUBILEINY 04 Mar 04:43:33 04:52:23 89° 266° (W) 05:01:12 435.215
AO-7 04 Mar 04:47:43 04:56:00 84° 104° (ESE) 05:04:20 29.400- 29.500
MOZHAYETS 4 04 Mar 04:59:14 05:03:20 34° 79° (E) 05:07:29
BEESAT 3 04 Mar 04:59:22 05:02:43 25° 247° (WSW) 05:05:58 437.485
JAS-2 04 Mar 05:00:12 05:08:03 75° 102° (ESE) 05:15:40 435.910
JUGNU 04 Mar 05:09:14 05:10:36 11° 6° (N) 05:12:01 437.505
SRMSAT 04 Mar 05:12:17 05:12:55 10° 357° (N) 05:13:31 437.500
BEESAT 2 04 Mar 05:27:41 05:29:42 13° 246° (WSW) 05:31:28 435.950
AIST 2 04 Mar 05:29:55 05:33:52 43° 248° (WSW) 05:37:45 435.215
M-CUBED/EXP-1 PRIME 04 Mar 05:39:43 05:42:33 24° 255° (WSW) 05:45:15 437.505
AUBIESAT-1 04 Mar 05:40:30 05:43:27 27° 255° (WSW) 05:46:17 437.475
Cubesat XI-IV 04 Mar 06:04:28 06:07:58 19° 101° (E) 06:11:43 437.490
CUTE-I 04 Mar 06:12:32 06:16:35 23° 101° (ESE) 06:20:49 437.470
ISS 04 Mar 06:19:17 06:22:16 34° 126° (SE) 06:25:15 145.825
MOZHAYETS 4 04 Mar 06:39:34 06:40:29 10° 260° (W) 06:41:01
AO-7 04 Mar 06:47:23 06:48:49 10° 284° (WNW) 06:49:14 29.400- 29.500
JAS-2 04 Mar 06:49:26 06:52:56 13° 281° (WNW) 06:55:37 435.910
JUGNU 04 Mar 06:56:23 07:00:32 19° 15° (NNE) 07:04:46 437.505
CUBESAT XI-V 04 Mar 07:01:15 07:05:50 59° 78° (ENE) 07:10:26 437.345
SRMSAT 04 Mar 07:01:22 07:03:16 11° 7° (N) 07:05:15 437.500
AIST 1 04 Mar 07:08:29 07:12:29 39° 94° (E) 07:16:32
PRISM 04 Mar 07:13:02 07:17:09 85° 257° (WSW) 07:21:16 437.425
STRAND 1 04 Mar 07:38:06 07:43:15 90° 299° (WNW) 07:48:23 437.568
Cubesat XI-IV 04 Mar 07:43:24 07:47:58 28° 282° (WNW) 07:52:25 437.490
CUTE-I 04 Mar 07:52:22 07:56:34 23° 281° (WNW) 08:00:34 437.470
PCSat 04 Mar 08:02:01 08:07:24 82° 252° (WSW) 08:12:49 145.827
HO-68 04 Mar 08:32:24 08:37:52 25° 103° (ESE) 08:43:39 435.675
JUGNU 04 Mar 08:44:15 08:49:57 46° 20° (NNE) 08:55:41 437.505
SEEDS 04 Mar 08:45:24 08:47:35 14° 100° (E) 08:50:01 437.485
SRMSAT 04 Mar 08:48:51 08:53:18 22° 16° (NNE) 08:57:48 437.500
CANX-2 04 Mar 08:49:41 08:53:05 24° 101° (E) 08:56:37 2200.000
O/OREOS (USA 219) 04 Mar 08:53:13 08:57:44 80° 105° (ESE) 09:02:15 437.305
GONETS M04 04 Mar 08:59:35 09:04:25 17° 84° (E) 09:10:02
CUTE 1.7 + AOD 2 04 Mar 09:07:31 09:11:29 38° 101° (E) 09:15:31 437.475
